Wind_Speed
23 24 26 28 30 31 31 30 28 28 28 27 26 25 24 22 22 22 21 19 18 17 16 15 15 15 15 13 13 13 13 14 14 13 14 14 14 14 13 13 13 12 12
20 22 23 25 26 28 29 30 30 28 28 27 27 27 26 24 24 23 22 21 20 19 18 17 16 17 16 15 14 15 15 15 15 15 15 14 14 14 14 14 13 13 13
19 19 21 22 24 25 28 29 29 30 29 28 27 26 27 26 25 24 24 23 22 21 20 19 19 18 18 17 16 16 16 16 16 17 16 15 15 15 15 15 14 14 13
17 17 19 20 22 24 26 27 29 30 30 29 28 27 28 27 27 26 25 25 24 24 23 22 21 20 20 19 18 18 18 17 17 17 17 17 16 16 16 16 15 15 14
14 15 16 18 20 21 24 26 28 30 30 30 29 28 28 28 27 28 27 27 26 25 24 23 23 22 21 20 20 19 19 18 18 18 18 18 17 17 17 17 16 16 15
13 14 14 15 17 19 21 23 26 28 29 30 29 29 28 29 29 28 28 28 28 27 25 25 24 24 23 22 22 21 20 20 19 19 19 19 19 18 18 18 18 17 17
11 12 13 14 16 17 19 21 24 25 27 28 29 29 28 28 29 29 28 29 29 28 28 27 26 25 25 24 23 22 22 21 21 20 21 21 20 20 19 19 18 18 18
10 10 11 12 14 15 17 19 22 24 25 27 28 28 28 28 28 30 29 29 30 30 30 29 28 27 27 26 25 24 24 23 23 22 22 22 22 21 21 21 20 20 19
10 10 10 10 12 13 14 17 19 21 23 25 27 28 28 28 29 29 30 29 30 30 30 30 30 30 29 28 27 26 26 25 25 25 24 24 23 23 22 22 21 21 21
10 9 8 8 9 10 12 14 16 18 21 23 25 27 27 27 27 28 29 30 31 32 31 31 32 32 31 30 29 28 27 27 27 27 26 26 25 24 23 23 23 23 22
10 8 7 6 6 7 8 10 13 16 19 21 23 24 25 25 25 27 28 30 32 33 33 32 32 32 32 31 31 30 29 28 29 29 28 27 27 26 25 25 25 24 24
11 9 8 6 5 5 5 7 10 12 15 18 20 22 23 23 24 25 27 29 31 33 33 33 33 33 33 33 33 32 31 31 30 30 30 30 29 29 28 27 26 26 26
12 10 9 7 5 3 3 5 7 9 12 15 17 20 21 21 22 24 25 27 29 31 33 34 35 34 34 34 34 34 34 33 33 32 32 31 31 31 30 29 29 28 28
14 12 10 8 6 4 2 3 4 6 8 12 15 17 19 20 20 22 24 25 27 29 31 34 35 35 36 35 35 35 35 35 35 35 34 34 33 33 33 32 32 31 31
14 13 11 9 7 6 3 2 3 5 6 8 12 15 17 19 20 21 22 24 26 28 29 31 33 34 35 36 36 37 37 37 37 37 37 37 36 35 35 35 34 34 33
14 13 12 10 9 7 5 3 2 3 5 6 9 11 14 17 19 20 20 22 24 26 28 31 33 35 36 37 37 38 39 39 39 38 38 39 39 38 38 37 36 36 35
15 13 12 11 9 8 6 5 3 2 3 4 6 8 11 14 16 18 19 20 22 24 27 29 32 35 37 37 37 37 39 41 41 41 41 41 42 41 41 40 39 39 38
16 14 13 12 11 9 8 7 5 4 2 3 5 7 9 11 14 16 17 19 21 23 25 27 29 31 35 37 38 37 39 41 42 42 42 42 42 43 43 42 42 41 40
16 15 13 12 12 10 9 7 6 5 4 3 3 4 6 8 11 13 14 16 18 20 22 25 27 29 32 34 36 37 38 39 40 42 44 44 44 44 44 43 43 42 42
16 15 14 13 12 10 9 8 7 6 5 5 4 4 5 6 7 10 12 14 15 17 19 22 25 27 29 32 33 35 37 38 39 39 41 42 43 43 43 43 43 43 43
15 15 14 13 12 11 10 9 8 7 7 6 5 5 5 5 6 8 9 11 13 15 16 19 22 24 25 28 31 33 35 37 39 39 39 40 41 41 42 42 43 43 43
14 14 14 13 12 11 10 10 9 8 8 7 6 6 6 6 6 7 8 10 12 13 14 15 18 20 23 25 28 30 31 33 35 37 38 39 41 41 41 42 42 43 43
14 14 13 12 12 11 11 10 9 9 8 8 7 7 7 7 7 8 8 9 10 11 12 13 15 17 19 22 25 26 28 30 32 34 34 35 37 39 40 40 41 42 42
14 14 13 12 12 12 11 11 10 9 9 9 8 8 8 7 8 8 8 9 9 10 11 12 13 15 17 19 21 23 25 26 28 30 31 31 33 35 37 38 38 40 42
14 14 14 13 12 12 12 12 11 11 11 10 10 9 9 9 8 8 8 9 9 9 11 12 13 14 15 16 17 18 20 22 23 25 27 28 30 32 35 36 38 39 40
15 15 14 14 13 13 13 13 13 12 12 11 11 10 10 10 10 10 10 9 10 10 10 10 11 11 12 13 15 16 18 19 20 22 23 25 27 29 31 34 36 37 38
Wind_Direction
264 259 255 253 249 247 245 243 241 239 239 237 235 233 231 232 229 224 222 222 223 222 220 217 214 211 209 209 209 208 205 206 206 206 204 203 202 201 199 200 200 200 200
267 261 257 253 250 246 245 244 243 240 239 237 236 233 230 230 230 226 223 223 223 222 221 218 214 211 211 211 212 211 209 208 209 209 206 206 206 205 205 205 206 207 207
271 262 256 253 250 247 243 241 241 240 239 237 235 232 229 227 226 225 225 225 225 223 221 219 216 215 215 215 214 214 214 212 212 211 210 210 210 210 211 212 213 213 214
278 267 259 254 250 246 244 241 239 238 237 236 234 232 229 226 226 226 226 225 224 224 221 221 220 220 219 218 216 215 216 216 215 214 214 214 214 213 215 216 217 219 219
284 275 265 258 251 247 244 240 238 237 236 235 233 231 229 226 225 225 226 225 224 224 223 221 222 223 221 219 219 218 218 217 217 217 217 217 217 217 218 219 219 221 223
288 278 270 263 254 248 245 239 237 235 234 232 232 231 230 227 226 226 227 225 224 225 225 224 224 224 223 222 221 220 220 220 220 219 220 221 222 221 220 222 223 225 225
294 282 274 266 258 251 246 240 236 233 232 230 230 229 231 229 229 228 228 226 226 226 226 225 225 226 226 225 224 222 221 222 223 222 222 224 224 224 224 225 226 226 227
305 294 281 271 262 255 248 242 236 231 230 229 229 228 228 229 229 229 228 229 228 227 227 227 227 227 227 226 226 226 224 224 225 225 226 226 227 227 227 228 229 229 231
322 308 296 278 267 259 253 244 237 232 230 229 229 228 228 229 231 230 231 232 230 228 228 229 229 228 228 227 228 229 227 227 227 227 229 229 231 231 230 230 231 233 234
339 328 312 291 273 263 255 244 236 233 230 229 229 230 230 231 232 231 231 232 232 230 229 229 231 230 229 229 229 229 230 230 230 230 231 231 232 233 233 233 234 235 237
353 346 333 310 288 270 258 243 236 234 232 230 229 230 231 232 231 232 233 232 232 232 232 231 232 231 229 229 230 231 231 232 233 232 231 232 232 233 234 236 237 238 238
4 360 353 340 314 284 261 244 236 234 231 230 229 230 230 232 232 233 234 235 234 233 233 234 233 232 232 232 231 232 234 235 234 233 233 233 235 236 236 237 239 240 240
13 10 7 3 353 319 267 244 239 235 232 229 229 229 230 232 232 233 234 235 234 234 234 235 235 235 236 235 234 234 235 236 235 234 235 235 237 238 239 239 241 242 242
17 16 13 11 9 356 318 258 240 235 233 231 230 230 230 231 234 236 237 238 239 238 237 236 235 236 236 237 237 237 237 237 237 236 237 238 239 240 241 241 243 244 244
18 19 17 15 11 8 355 305 253 244 241 237 234 231 231 234 237 240 242 242 242 241 240 239 238 237 237 238 239 238 238 238 238 238 238 240 240 241 242 244 245 246 246
17 19 20 18 16 13 9 350 305 268 243 237 234 232 232 234 238 242 245 247 246 242 240 240 241 238 238 239 240 239 239 239 239 240 241 241 241 242 243 244 245 247 247
20 19 20 20 20 18 15 9 355 304 263 247 243 240 238 240 242 245 249 251 250 247 243 242 242 240 239 241 241 241 239 241 241 242 243 243 243 243 244 244 246 248 250
21 22 20 21 19 19 18 17 14 5 331 283 260 251 249 250 252 254 256 258 257 253 248 245 244 243 241 241 241 242 241 241 243 243 244 244 243 244 244 245 248 250 251
20 20 19 18 19 21 21 19 15 9 1 342 305 276 261 257 257 257 259 262 262 258 255 251 249 248 245 243 242 243 243 242 243 244 244 243 245 245 245 246 247 249 251
19 19 18 18 17 17 18 17 13 9 1 348 332 310 288 273 268 265 264 263 262 259 258 254 252 250 248 245 244 244 245 245 246 247 246 245 246 246 245 245 247 249 251
13 14 14 15 16 17 16 14 10 7 3 358 350 333 312 298 286 281 277 273 269 266 264 260 256 253 251 248 248 247 248 248 248 249 250 249 248 247 246 246 247 249 250
7 7 9 10 11 10 11 11 7 2 358 353 347 339 330 319 305 298 291 284 277 273 270 268 263 258 254 251 251 249 250 250 251 250 252 251 249 248 247 247 248 249 251
359 0 1 3 5 6 6 4 1 357 354 349 343 338 329 321 317 312 305 297 291 285 278 274 268 263 259 255 252 250 251 252 254 253 253 253 252 250 250 251 252 251 251
352 352 352 352 353 354 354 354 352 350 347 343 339 335 331 323 315 315 313 307 300 292 285 278 272 267 262 259 256 254 255 254 254 254 254 253 252 251 251 252 254 254 253
344 344 345 344 342 342 343 342 341 341 341 339 334 330 328 327 322 316 314 313 309 301 294 287 282 274 267 263 258 257 256 255 255 254 256 256 255 254 252 252 253 255 256
336 335 335 334 333 331 331 331 331 331 331 331 330 327 323 323 321 319 316 315 313 311 306 299 290 283 276 269 263 260 258 256 256 256 257 257 257 257 255 255 255 256 256
Height
5803 5804 5805 5807 5809 5811 5814 5817 5819 5822 5825 5828 5831 5834 5837 5840 5843 5846 5849 5851 5853 5856 5858 5859 5861 5863 5865 5866 5868 5870 5872 5874 5876 5878 5880 5881 5883 5885 5887 5889 5890 5892 5893
5798 5798 5799 5800 5802 5804 5807 5810 5813 5816 5819 5822 5826 5829 5832 5835 5838 5841 5844 5847 5850 5852 5854 5857 5858 5860 5862 5864 5866 5868 5870 5872 5874 5876 5878 5880 5882 5884 5886 5888 5889 5891 5893
5793 5793 5793 5794 5796 5798 5800 5803 5807 5810 5813 5816 5820 5824 5827 5830 5833 5836 5840 5843 5846 5848 5851 5853 5856 5858 5860 5862 5864 5866 5868 5870 5872 5874 5876 5878 5880 5882 5884 5886 5888 5890 5891
5788 5788 5788 5789 5790 5792 5794 5797 5800 5804 5807 5810 5814 5818 5821 5824 5828 5832 5835 5838 5841 5844 5847 5850 5852 5855 5857 5859 5861 5863 5865 5867 5870 5872 5874 5876 5878 5880 5882 5885 5886 5888 5890
5784 5783 5783 5784 5785 5787 5789 5791 5794 5797 5800 5804 5808 5812 5815 5819 5823 5826 5830 5833 5836 5840 5843 5846 5848 5851 5853 5856 5858 5860 5862 5865 5867 5870 5872 5874 5876 5878 5880 5882 5884 5886 5887
5780 5780 5779 5780 5780 5782 5783 5785 5788 5791 5794 5798 5802 5806 5810 5814 5817 5821 5824 5828 5831 5835 5838 5841 5844 5847 5850 5852 5855 5857 5859 5862 5864 5867 5869 5872 5873 5876 5878 5880 5882 5883 5885
5777 5776 5775 5775 5776 5777 5778 5780 5782 5785 5788 5792 5796 5800 5804 5808 5811 5815 5819 5823 5826 5829 5833 5836 5840 5843 5846 5848 5851 5853 5856 5858 5861 5864 5866 5868 5871 5873 5875 5877 5879 5881 5882
5774 5772 5772 5771 5771 5772 5773 5775 5777 5780 5783 5787 5790 5794 5799 5803 5806 5810 5813 5817 5820 5824 5828 5831 5835 5838 5841 5844 5847 5849 5852 5855 5857 5860 5863 5865 5867 5869 5871 5874 5876 5878 5879
5771 5769 5768 5768 5767 5768 5769 5770 5772 5775 5778 5781 5785 5789 5793 5797 5800 5804 5807 5811 5814 5818 5822 5825 5829 5832 5836 5839 5842 5845 5848 5850 5853 5856 5858 5861 5863 5866 5868 5870 5872 5874 5876
5769 5767 5766 5765 5764 5764 5765 5766 5768 5770 5773 5776 5779 5783 5787 5791 5794 5798 5802 5805 5808 5812 5816 5819 5823 5827 5830 5833 5837 5840 5843 5846 5848 5851 5854 5856 5859 5861 5864 5866 5868 5870 5871
5768 5766 5764 5763 5762 5761 5762 5763 5764 5767 5769 5772 5775 5778 5782 5785 5788 5792 5796 5799 5802 5806 5809 5813 5817 5820 5824 5827 5831 5834 5837 5840 5843 5846 5849 5852 5854 5856 5859 5861 5863 5865 5867
5767 5765 5763 5761 5760 5759 5760 5760 5761 5763 5765 5768 5771 5774 5777 5780 5783 5786 5790 5792 5796 5799 5803 5806 5810 5814 5817 5820 5824 5828 5831 5834 5837 5840 5843 5846 5849 5851 5854 5856 5858 5860 5862
5767 5765 5762 5760 5759 5758 5758 5758 5759 5760 5762 5764 5767 5770 5773 5776 5778 5781 5784 5786 5789 5793 5796 5799 5803 5807 5810 5813 5817 5821 5824 5827 5831 5834 5837 5840 5843 5845 5848 5850 5852 5854 5856
5768 5765 5762 5760 5759 5758 5757 5757 5758 5758 5759 5761 5763 5766 5768 5771 5773 5775 5778 5781 5783 5786 5789 5792 5796 5799 5803 5806 5810 5813 5817 5820 5823 5827 5830 5833 5836 5839 5841 5843 5846 5848 5849
5769 5766 5763 5761 5759 5758 5757 5756 5756 5757 5758 5759 5761 5763 5765 5767 5769 5771 5773 5775 5778 5780 5782 5785 5788 5791 5795 5798 5802 5805 5809 5812 5816 5819 5823 5826 5829 5831 5834 5836 5838 5840 5842
5769 5767 5764 5762 5760 5758 5757 5756 5756 5756 5756 5757 5758 5759 5761 5763 5765 5767 5768 5770 5771 5773 5775 5777 5780 5783 5787 5790 5793 5797 5800 5804 5807 5811 5814 5817 5820 5823 5826 5828 5831 5833 5835
5770 5768 5765 5763 5761 5759 5757 5756 5756 5755 5755 5756 5756 5757 5758 5760 5761 5762 5763 5764 5765 5767 5769 5770 5773 5775 5779 5782 5785 5789 5791 5795 5798 5802 5805 5808 5811 5814 5817 5820 5822 5825 5827
5772 5769 5766 5764 5761 5759 5758 5757 5756 5755 5755 5755 5755 5755 5756 5757 5758 5758 5759 5760 5760 5761 5762 5764 5765 5768 5770 5774 5777 5780 5783 5786 5789 5792 5795 5798 5801 5804 5807 5810 5813 5816 5818
5773 5770 5767 5765 5762 5760 5759 5757 5756 5755 5754 5754 5754 5754 5754 5754 5754 5755 5755 5755 5755 5756 5756 5758 5759 5760 5762 5765 5768 5771 5774 5777 5780 5782 5785 5788 5791 5794 5797 5800 5803 5805 5808
5774 5771 5768 5766 5763 5761 5759 5758 5757 5756 5755 5754 5753 5752 5752 5752 5752 5752 5751 5751 5751 5751 5751 5751 5752 5753 5755 5757 5760 5763 5765 5768 5770 5772 5775 5778 5781 5783 5787 5790 5793 5795 5798
5776 5773 5770 5767 5764 5762 5760 5759 5757 5756 5754 5753 5752 5751 5750 5750 5749 5748 5748 5747 5747 5746 5746 5746 5746 5747 5748 5750 5752 5754 5756 5758 5760 5763 5765 5768 5770 5773 5776 5779 5781 5784 5787
5776 5773 5770 5768 5765 5763 5761 5759 5757 5756 5754 5753 5751 5750 5749 5748 5747 5746 5745 5744 5743 5742 5741 5741 5741 5741 5741 5742 5744 5745 5747 5750 5752 5754 5755 5757 5759 5762 5765 5768 5771 5773 5775
5776 5774 5771 5768 5766 5764 5761 5759 5757 5756 5754 5752 5751 5749 5748 5746 5745 5743 5742 5741 5739 5738 5738 5737 5736 5735 5735 5736 5737 5738 5740 5741 5743 5745 5746 5747 5749 5751 5755 5757 5760 5762 5765
5776 5773 5770 5768 5766 5763 5761 5759 5757 5755 5753 5751 5749 5748 5746 5744 5743 5741 5740 5738 5737 5735 5734 5733 5732 5731 5730 5730 5731 5732 5732 5734 5735 5736 5737 5739 5740 5742 5744 5747 5750 5752 5754
5775 5772 5769 5767 5765 5763 5760 5758 5756 5754 5752 5750 5748 5746 5744 5743 5741 5739 5738 5736 5734 5732 5731 5729 5728 5727 5726 5726 5726 5726 5726 5727 5728 5729 5730 5731 5732 5733 5735 5738 5740 5742 5743
5773 5770 5768 5765 5763 5761 5759 5757 5755 5753 5751 5749 5747 5745 5743 5741 5739 5737 5735 5734 5732 5730 5728 5726 5725 5723 5722 5721 5721 5721 5721 5722 5722 5723 5723 5724 5725 5726 5727 5729 5730 5732 5733